2016 YE
ephemeris date magn radius delta ra dec elong phase
Today15 Oct 202528.61.201 AU2.165 AU14h03m-09°07'10.9°9.0°
2016 YE - 2025-10-15
astro.vanbuitenen.nl


 
-1 year
-1 month
-1 day
Now
+1 day
+1 month
+1 year

The interactive orbit chart above shows the body's path through the solar system and its position at the given date. Green and blue lines are shown perpendicular to the ecliptic plane: Green if the path is above the ecliptic plane, blue if it is below. (Left-click and drag to rotate the view; Right-click and drag to move the view; Use scroll wheel to zoom in our out.)

The orbital elements of 2016 YE are:

            e (Eccentricity)                : 0.1095940
            a (Semimajor axis)              : 1.1314590
            i (Inclination)                 : 8.48098
            Ω (Longitude of ascending node) : 83.49890
            ω (Argument of perihelion)      : 7.78437
            M (Mean anomaly)                : 345.23162
            Epoch                           : 2025 May 05

            L (Longitude of perihelion)     : 91.19917
            B (Latitude of perihelion)      : 1.14459
            P (Orbital period in years)     : 1.20            
        

The light curve chart below shows the estimated development of the minor planet's magnitude.


The all-sky chart below shows the path of the minor planet over the same period as the light curve. The current position is marked yellow.





The following chart shows the path of the minor planet in the next few days. The field of view is optimized for (~10x50) binoculars and finderscopes. A more printer-friendly version of the same chart can be found below.




Ephemerides:
Date       Time       RA (2000)    DEC (2000)    delta   radius  elong  phase   PA    magn
2025-10-15 00:00 UT   14 03 30.3   -09 07 35     2.165    1.201   10.9    9.0    93   28.6 
2025-10-15 07:15 UT   14 04 28.0   -09 13 34     2.166    1.201   10.8    9.0    93   28.6 
2025-10-16 00:00 UT   14 06 41.2   -09 27 21     2.167    1.202   10.7    8.9    93   28.6 
2025-10-17 00:00 UT   14 09 52.1   -09 46 58     2.169    1.203   10.6    8.7    93   28.6 
2025-10-18 00:00 UT   14 13 03.3   -10 06 27     2.171    1.205   10.4    8.6    92   28.6 
2025-10-19 00:00 UT   14 16 14.7   -10 25 48     2.173    1.206   10.3    8.5    92   28.6 
2025-10-20 00:00 UT   14 19 26.2   -10 44 59     2.175    1.207   10.1    8.3    92   28.6 
2025-10-21 00:00 UT   14 22 38.0   -11 04 00     2.177    1.209   10.0    8.2    92   28.6 
2025-10-22 00:00 UT   14 25 50.1   -11 22 53     2.179    1.210    9.8    8.1    92   28.6 
2025-10-23 00:00 UT   14 29 02.3   -11 41 35     2.181    1.211    9.7    7.9    91   28.6 
2025-10-24 00:00 UT   14 32 14.8   -12 00 08     2.183    1.213    9.5    7.8    91   28.6 
2025-10-25 00:00 UT   14 35 27.6   -12 18 31     2.184    1.214    9.3    7.6    91   28.6 


    Terminology:
            
    delta:  distance between minor planet and earth in AU
    radius: distance between minor planet and sun in AU
    magn:   magnitude (brightness) estimate    
    ra:     right ascension in hours (24h = 360deg)
    dec:    declination in degrees
    elong:  elongation in degrees (angle sun-earth-minor planet)    
    phase:  phase angle in degrees (angle sun-minor planet-earth)        
    AU:     Astronomical Unit (mean distance between earth and sun: 149597870.7 km
    

Orbital elements provided by the MPC (Minor Planet Center).
Calculations by a modified version of AAPlus, a C# implementation of the AA+ project by PJ Naughter from the algorithms presented in the book "Astronomical Algorithms" by Jean Meeus.
NGC2000 dso catalog and star labels from VizieR as provided by the Strasbourg astronomical Data Center.
Tycho2 catalog from the ESO archive.